KQ4KX Weather Reports


Display with metric or nautical units.
time (UTC)temp
F
wind
direction
speed
MPH
gust
MPH
rain 1hr
in
rain 24hr
in
rain mn
in
humidity
%
barometer
mb
20260510020836 80 41 1.0 3.0 0.00 0.01 0.01 81 1014.8
20260510020306 80 40 1.0 3.0 0.00 0.01 0.01 81 1014.9
20260510015806 81 37 2.0 3.0 0.00 0.01 0.01 80 1014.8
20260510014736 81 30 2.0 4.0 0.00 0.01 0.01 80 1014.7
20260510014236 81 33 2.0 4.0 0.00 0.01 0.01 79 1014.6
20260510013736 82 47 2.0 4.0 0.00 0.01 0.01 79 1014.5
20260510013236 82 42 2.0 4.0 0.00 0.01 0.01 79 1014.3
20260510012706 82 38 3.0 4.0 0.00 0.01 0.01 78 1014.3
20260510012136 83 41 2.0 4.0 0.00 0.01 0.01 76 1014.2
20260510011636 84 37 2.0 4.0 0.00 0.01 0.01 74 1014.1
20260510011136 84 15 2.0 4.0 0.00 0.01 0.01 69 1014.0
20260510010636 84 328 1.0 3.0 0.00 0.01 0.01 63 1013.9
20260510010106 84 312 1.0 3.0 0.00 0.01 0.01 62 1013.6
20260510005536 85 312 2.0 3.0 0.00 0.01 0.01 61 1013.5
20260510005006 85 312 1.0 3.0 0.00 0.01 0.01 61 1013.4
20260510003936 85 308 1.0 2.0 0.00 0.01 0.01 60 1013.2
20260510003436 85 301 1.0 2.0 0.00 0.01 0.01 60 1013.1
20260510002936 85 299 1.0 3.0 0.00 0.01 0.01 60 1013.1
20260510002436 85 305 1.0 3.0 0.00 0.01 0.01 59 1013.1
20260510001936 86 309 2.0 3.0 0.00 0.01 0.01 59 1013.0
20260510001436 86 307 2.0 4.0 0.00 0.01 0.01 59 1012.9
20260510000906 86 305 2.0 4.0 0.00 0.01 0.01 59 1012.8
20260510000336 86 298 2.0 4.0 0.00 0.01 0.01 58 1012.6
20260509235836 86 297 2.0 4.0 0.00 0.01 0.01 58 1012.6
20260509234236 87 292 2.0 7.0 0.00 0.01 0.01 59 1012.4
20260509233706 87 293 2.0 7.0 0.00 0.01 0.01 60 1012.4
20260509233206 88 294 3.0 7.0 0.00 0.01 0.01 60 1012.3
20260509232706 88 291 3.0 7.0 0.00 0.01 0.01 60 1012.1
20260509232206 88 288 3.0 7.0 0.00 0.01 0.01 60 1012.1
20260509231636 88 278 4.0 10.0 0.00 0.01 0.01 59 1012.1
20260509230606 89 277 4.0 10.0 0.00 0.01 0.01 58 1012.0
20260509230106 89 276 4.0 10.0 0.00 0.01 0.01 57 1011.9
20260509225606 89 288 3.0 8.0 0.00 0.01 0.01 57 1011.8
20260509225036 90 300 3.0 8.0 0.00 0.01 0.01 56 1011.8
20260509224036 90 269 4.0 9.0 0.00 0.01 0.01 56 1011.6
20260509223006 90 290 4.0 8.0 0.00 0.01 0.01 56 1011.6
20260509222436 91 288 4.0 8.0 0.00 0.01 0.01 55 1011.6
20260509221906 91 278 3.0 9.0 0.00 0.01 0.01 56 1011.6
20260509221406 91 270 3.0 9.0 0.00 0.01 0.01 56 1011.6
20260509220906 91 274 4.0 11.0 0.00 0.01 0.01 56 1011.5
20260509220406 91 287 4.0 11.0 0.00 0.01 0.01 56 1011.5
20260509215836 92 292 4.0 8.0 0.00 0.01 0.01 56 1011.5
20260509215336 91 284 4.0 7.0 0.00 0.01 0.01 56 1011.5
20260509214836 91 289 3.0 7.0 0.00 0.01 0.01 57 1011.4
20260509214306 91 290 3.0 7.0 0.00 0.01 0.01 58 1011.4
20260509213306 90 238 3.0 7.0 0.00 0.01 0.01 61 1011.3
20260509212806 89 202 3.0 7.0 0.01 0.01 0.01 68 1011.3
20260509212236 89 181 3.0 7.0 0.01 0.01 0.01 69 1011.2
20260509211736 88 175 3.0 7.0 0.01 0.01 0.01 71 1011.1
20260509211236 87 180 2.0 6.0 0.01 0.01 0.01 71 1011.3
20260509210707 86 187 2.0 5.0 0.01 0.01 0.01 75 1011.2
20260509210206 86 202 1.0 5.0 0.01 0.01 0.01 80 1011.2
20260509205636 84 239 2.0 4.0 0.01 0.01 0.01 79 1011.2
20260509205136 84 244 2.0 4.0 0.01 0.01 0.01 78 1011.2
20260509204606 83 225 2.0 15.0 0.01 0.01 0.01 81 1011.2
20260509203606 83 245 7.0 20.0 0.01 0.01 0.01 79 1011.3
20260509203036 86 262 6.0 20.0 0.00 0.00 0.00 68 1011.4
20260509201936 92 273 3.0 8.0 0.00 0.00 0.00 54 1011.2
20260509201406 92 265 4.0 8.0 0.00 0.00 0.00 54 1011.3
20260509200836 92 261 4.0 8.0 0.00 0.00 0.00 55 1011.3
20260509195236 93 265 4.0 9.0 0.00 0.00 0.00 53 1011.5
20260509194706 93 263 4.0 9.0 0.00 0.00 0.00 54 1011.4
20260509194136 93 255 4.0 9.0 0.00 0.00 0.00 53 1011.6
20260509193636 93 245 4.0 9.0 0.00 0.00 0.00 53 1011.6
20260509193155 93 249 4.0 9.0 0.00 0.00 0.00 54 1011.6
20260509193106 93 249 4.0 9.0 0.00 0.00 0.00 54 1011.6
20260509192606 93 254 3.0 9.0 0.00 0.00 0.00 53 1011.7
20260509192256 94 222 3.0 10.0 0.00 0.00 0.00 52 1011.8
20260509192106 94 222 3.0 10.0 0.00 0.00 0.00 52 1011.8
20260509191606 94 236 5.0 11.0 0.00 0.00 0.00 52 1011.8
20260509191036 94 249 4.0 11.0 0.00 0.00 0.00 52 1011.9
20260509190536 94 262 3.0 9.0 0.00 0.00 0.00 52 1012.0
20260509190006 94 254 4.0 11.0 0.00 0.00 0.00 51 1011.9
20260509185506 94 243 5.0 12.0 0.00 0.00 0.00 53 1012.1
20260509184936 94 239 4.0 12.0 0.00 0.00 0.00 52 1012.1
20260509184406 94 235 3.0 9.0 0.00 0.00 0.00 51 1012.1
20260509183906 94 240 3.0 9.0 0.00 0.00 0.00 52 1012.2
20260509183406 94 245 4.0 13.0 0.00 0.00 0.00 52 1012.3
20260509182906 94 239 4.0 13.0 0.00 0.00 0.00 52 1012.3
20260509182336 94 233 3.0 10.0 0.00 0.00 0.00 53 1012.4
20260509181836 94 264 4.0 10.0 0.00 0.00 0.00 52 1012.4
20260509181336 94 273 4.0 10.0 0.00 0.00 0.00 51 1012.5
20260509180836 93 258 4.0 12.0 0.00 0.00 0.00 53 1012.5
20260509180336 93 244 4.0 12.0 0.00 0.00 0.00 51 1012.6
20260509175805 93 237 5.0 12.0 0.00 0.00 0.00 53 1012.4
20260509175236 93 238 5.0 14.0 0.00 0.00 0.00 53 1012.6
20260509174706 93 253 4.0 14.0 0.00 0.00 0.00 52 1012.6
20260509174206 93 248 6.0 14.0 0.00 0.00 0.00 54 1012.7
20260509173707 93 249 6.0 14.0 0.00 0.00 0.00 54 1012.7
20260509173135 93 258 5.0 11.0 0.00 0.00 0.00 53 1012.8
20260509172636 93 266 4.0 11.0 0.00 0.00 0.00 54 1012.7
20260509172106 93 260 5.0 11.0 0.00 0.00 0.00 53 1012.8
20260509171605 92 256 6.0 11.0 0.00 0.00 0.00 53 1012.9
20260509171035 93 251 6.0 14.0 0.00 0.00 0.00 53 1012.9
20260509165936 93 242 5.0 11.0 0.00 0.00 0.00 52 1012.8
20260509165436 92 238 5.0 11.0 0.00 0.00 0.00 54 1012.9
20260509163406 92 237 5.0 13.0 0.00 0.00 0.00 53 1013.0
20260509162835 92 238 5.0 11.0 0.00 0.00 0.00 55 1013.1
20260509162336 92 236 5.0 17.0 0.00 0.00 0.00 55 1013.1
20260509161836 91 229 5.0 17.0 0.00 0.00 0.00 55 1013.1
20260509161336 90 227 5.0 13.0 0.00 0.00 0.00 57 1013.3
20260509160806 90 236 5.0 13.0 0.00 0.00 0.00 56 1013.3
20260509155236 90 215 4.0 12.0 0.00 0.00 0.00 57 1013.3
20260509154236 89 233 4.0 9.0 0.00 0.00 0.00 60 1013.6
20260509152706 88 217 3.0 9.0 0.00 0.00 0.00 63 1013.7
20260509151636 88 201 3.0 6.0 0.00 0.00 0.00 64 1013.9
20260509151106 87 197 3.0 7.0 0.00 0.00 0.00 64 1014.0
20260509150605 87 180 3.0 9.0 0.00 0.00 0.00 65 1014.0
20260509150105 87 176 3.0 9.0 0.00 0.00 0.00 65 1014.1
20260509145606 87 184 3.0 8.0 0.00 0.00 0.00 66 1014.0
20260509145035 86 188 3.0 9.0 0.00 0.00 0.00 67 1013.9
20260509144536 86 170 2.0 9.0 0.00 0.00 0.00 68 1013.9
20260509144110 86 103 2.0 6.0 0.00 0.00 0.00 74 1014.0
20260509144005 86 103 2.0 6.0 0.00 0.00 0.00 74 1014.0
20260509143436 85 99 3.0 6.0 0.00 0.00 0.00 78 1014.0
20260509142936 85 93 2.0 4.0 0.00 0.00 0.00 78 1014.0
20260509142406 84 108 2.0 4.0 0.00 0.00 0.00 80 1014.0
20260509140835 82 62 2.0 3.0 0.00 0.00 0.00 84 1014.1
20260509140518 81 66 2.0 4.0 0.00 0.00 0.00 84 1014.2
20260509140336 81 66 2.0 4.0 0.00 0.00 0.00 84 1014.2
20260509135836 81 83 2.0 4.0 0.00 0.00 0.00 85 1014.3
20260509134805 80 88 2.0 4.0 0.00 0.00 0.00 86 1014.3
20260509133236 80 38 2.0 4.0 0.00 0.00 0.00 87 1014.3
20260509132706 80 37 2.0 4.0 0.00 0.00 0.00 88 1014.2
20260509132206 80 61 2.0 3.0 0.00 0.00 0.00 89 1014.3
20260509131706 80 61 2.0 3.0 0.00 0.00 0.00 89 1014.3
20260509131135 80 56 2.0 3.0 0.00 0.00 0.00 88 1014.2
20260509130635 80 71 2.0 3.0 0.00 0.00 0.00 87 1014.2
20260509130135 80 72 1.0 3.0 0.00 0.00 0.00 86 1014.2
20260509125636 80 49 1.0 3.0 0.00 0.00 0.00 87 1014.0
20260509125459 80 54 1.0 3.0 0.00 0.00 0.00 86 1014.2
20260509125135 80 54 1.0 3.0 0.00 0.00 0.00 86 1014.2
20260509123605 78 355 1.0 2.0 0.00 0.00 0.00 90 1014.0
20260509122605 77 49 0.0 2.0 0.00 0.00 0.00 92 1014.0
20260509122035 76 90 1.0 2.0 0.00 0.00 0.00 93 1014.1
20260509121505 76 98 1.0 3.0 0.00 0.00 0.00 93 1013.9
20260509121005 76 105 1.0 3.0 0.00 0.00 0.00 94 1013.8
20260509120436 76 103 2.0 4.0 0.00 0.00 0.00 95 1013.6
20260509115335 76 101 1.0 4.0 0.00 0.00 0.00 96 1013.6
20260509114336 74 106 1.0 3.0 0.00 0.00 0.00 99 1013.3
20260509112805 74 162 1.0 4.0 0.00 0.00 0.00 99 1013.0
20260509111305 73 100 1.0 2.0 0.00 0.00 0.00 99 1013.1
20260509110555 72 104 2.0 4.0 0.00 0.00 0.00 99 1013.0
20260509110235 72 104 2.0 4.0 0.00 0.00 0.00 99 1013.0
20260509105447 72 106 2.0 4.0 0.00 0.00 0.00 99 1013.0
20260509105236 72 106 2.0 4.0 0.00 0.00 0.00 99 1013.0
20260509104235 72 107 0.0 3.0 0.00 0.00 0.00 99 1012.7
20260509103206 72 103 1.0 2.0 0.00 0.00 0.00 98 1012.7
20260509101106 72 316 0.0 1.0 0.00 0.00 0.00 98 1012.9
20260509100606 72 316 0.0 1.0 0.00 0.00 0.00 97 1012.9
20260509100249 72 316 0.0 1.0 0.00 0.00 0.00 97 1013.0
20260509100035 72 316 0.0 1.0 0.00 0.00 0.00 97 1013.0
20260509095505 72 316 0.0 1.0 0.00 0.00 0.00 97 1012.9
20260509094936 73 316 0.0 1.0 0.00 0.00 0.00 97 1012.8
20260509093906 73 316 0.0 1.0 0.00 0.00 0.00 97 1013.0
20260509093813 73 316 0.0 1.0 0.00 0.00 0.00 96 1012.8
20260509093405 73 316 0.0 1.0 0.00 0.00 0.00 96 1012.8
20260509092906 73 316 0.0 1.0 0.00 0.00 0.00 97 1012.8
20260509091235 74 316 0.0 1.0 0.00 0.00 0.00 96 1013.0
20260509090205 74 316 0.0 2.0 0.00 0.00 0.00 96 1013.0
20260509085205 74 316 1.0 2.0 0.00 0.00 0.00 96 1012.9
20260509084705 74 317 1.0 2.0 0.00 0.00 0.00 96 1012.9
20260509084136 74 319 1.0 2.0 0.00 0.00 0.00 96 1012.9
20260509083635 74 318 1.0 2.0 0.00 0.00 0.00 96 1013.4
20260509083136 74 322 1.0 2.0 0.00 0.00 0.00 96 1013.0
20260509082636 74 327 1.0 2.0 0.00 0.00 0.00 96 1013.1
20260509082105 74 329 1.0 2.0 0.00 0.00 0.00 96 1013.1
20260509081605 74 329 0.0 1.0 0.00 0.00 0.00 96 1013.2
20260509081035 74 329 0.0 1.0 0.00 0.00 0.00 95 1013.1
20260509075935 74 329 0.0 1.0 0.00 0.00 0.00 95 1013.3
20260509074906 74 0 0.0 0.0 0.00 0.00 0.00 95 1013.2
20260509074336 74 329 0.0 1.0 0.00 0.00 0.00 94 1013.4
20260509073336 74 339 0.0 1.0 0.00 0.00 0.00 94 1013.4
20260509072306 75 340 0.0 1.0 0.00 0.00 0.00 93 1013.4
20260509071736 75 340 0.0 1.0 0.00 0.00 0.00 93 1013.5
20260509071206 75 340 0.0 1.0 0.00 0.00 0.00 93 1013.5
20260509070636 75 341 0.0 1.0 0.00 0.00 0.00 93 1013.5
20260509070105 75 339 0.0 2.0 0.00 0.00 0.00 93 1013.6
20260509065536 75 335 1.0 2.0 0.00 0.00 0.00 93 1013.6
20260509064506 75 322 1.0 2.0 0.00 0.00 0.00 92 1013.7
20260509064005 75 322 1.0 2.0 0.00 0.00 0.00 92 1013.7
20260509063505 75 328 1.0 2.0 0.00 0.00 0.00 92 1013.7
20260509063005 75 329 1.0 2.0 0.00 0.00 0.00 92 1013.9
20260509062435 75 319 1.0 2.0 0.00 0.00 0.00 91 1013.9
20260509061935 76 316 1.0 2.0 0.00 0.00 0.00 91 1013.9
20260509061406 76 320 1.0 2.0 0.00 0.00 0.00 91 1014.0
20260509060835 76 321 1.0 2.0 0.00 0.00 0.00 91 1014.0
20260509060305 76 326 1.0 2.0 0.00 0.00 0.00 91 1014.0
20260509055235 76 330 1.0 2.0 0.00 0.00 0.00 90 1014.3
20260509054735 76 320 1.0 2.0 0.00 0.00 0.00 90 1014.5
20260509054205 76 318 1.0 2.0 0.00 0.00 0.00 90 1014.4
20260509053705 76 315 1.0 2.0 0.00 0.00 0.00 90 1014.6
20260509053135 76 309 1.0 2.0 0.00 0.00 0.00 90 1014.7
20260509052635 76 314 1.0 2.0 0.00 0.00 0.00 90 1014.7
20260509052106 76 319 1.0 3.0 0.00 0.00 0.00 89 1014.8
20260509051606 77 315 1.0 3.0 0.00 0.00 0.00 89 1014.8
20260509050605 77 295 1.0 3.0 0.00 0.00 0.00 88 1014.9
20260509050105 77 301 1.0 3.0 0.00 0.00 0.00 88 1014.9
20260509045605 77 312 1.0 2.0 0.00 0.00 0.00 87 1014.9
20260509044536 77 316 1.0 3.0 0.00 0.00 0.00 86 1014.9
20260509044005 77 318 2.0 3.0 0.00 0.00 0.00 86 1015.0
20260509043505 77 324 2.0 3.0 0.00 0.00 0.00 86 1015.0
20260509043005 77 325 1.0 3.0 0.00 0.00 0.00 85 1014.9
20260509042437 78 317 1.0 3.0 0.00 0.00 0.00 85 1014.9
20260509041905 78 319 1.0 3.0 0.00 0.00 0.00 84 1014.8
20260509041416 78 323 2.0 4.0 0.00 0.00 0.00 84 1014.9
20260509041336 78 323 2.0 4.0 0.00 0.00 0.00 84 1014.9
20260509040805 78 319 2.0 4.0 0.00 0.00 0.00 83 1015.1
20260509035205 79 332 2.0 4.0 0.00 0.00 0.00 82 1015.1
20260509034705 79 331 2.0 4.0 0.00 0.00 0.00 81 1015.0
20260509034135 79 333 2.0 4.0 0.00 0.00 0.00 80 1015.1
20260509033635 79 334 2.0 3.0 0.00 0.00 0.00 80 1015.1
20260509033105 79 338 2.0 4.0 0.00 0.00 0.00 79 1014.9
20260509032105 80 333 2.0 3.0 0.00 0.00 0.00 78 1014.8
20260509031535 80 342 2.0 4.0 0.00 0.00 0.00 78 1015.0
20260509031035 80 334 2.0 4.0 0.00 0.00 0.00 77 1014.9
20260509030536 80 335 2.0 5.0 0.00 0.00 0.00 77 1015.0
20260509030005 80 346 2.0 5.0 0.00 0.00 0.00 76 1014.9
20260509025505 80 351 3.0 5.0 0.00 0.00 0.00 76 1014.8
20260509025006 81 352 2.0 5.0 0.00 0.00 0.00 75 1014.8
20260509023935 81 355 2.0 5.0 0.00 0.00 0.00 73 1014.9
20260509023405 81 2 3.0 5.0 0.00 0.00 0.00 73 1014.8
20260509022905 82 357 3.0 5.0 0.00 0.00 0.00 72 1014.8
20260509022335 82 4 2.0 5.0 0.00 0.00 0.00 72 1014.7
20260509021305 82 359 2.0 4.0 0.00 0.00 0.00 71 1014.6